Home > Weather > Reading > Past weeks

Flag for United Kingdom Past Weather in Reading, England, United Kingdom — Yesterday and Last 2 Weeks

Now
50 °F

Clear.


Feels Like: 50 °F
Forecast: 58 / 71 °F
Wind: 1 mph from Northwest

Location: Benson

Current Time: Aug 27, 2016 at 2:25:47 AM

Latest Report: Aug 27, 2016 at 1:50 AM


Visibility: N/A

Pressure: 30.12 "Hg

Humidity: 94%

Dew Point: 48 °F

Location of ReadingLocation

Past Weather in Reading — Graph

°F

Reading Temperature Yesterday

Maximum temperature yesterday: 75 °F (at 2:50 PM)
Minimum temperature yesterday: 52 °F (at 10:50 PM)
Average temperature yesterday: 65 °F

High & Low Weather Summary for the Past Weeks

 TemperatureHumidityPressure
High84 °F (Aug 23, 1:50 PM)100% (Aug 12, 5:50 AM)30.30 "Hg (Aug 12, 5:50 AM)
Low45 °F (Aug 15, 5:50 AM)35% (Aug 23, 4:50 PM)29.62 "Hg (Aug 19, 5:50 PM)
Average65 °F74%30.03 "Hg
* Reported Aug 12 12:50 AM — Aug 27 12:50 AM, Reading, Weather by CustomWeather, © 2016

Note: Actual official high and low records may vary slightly from our data, if they occured in-between our weather recording intervals... More about our weather records

Advertising

Reading Weather History for the Previous 24 Hours

Scroll right to see more
 ConditionsComfort  
Time TempWeatherWind HumidityBarometerVisibility
12:50 AM
Sat, Aug 27
50 °FClear.1 mph94%30.12 "HgN/A
11:50 PM
Fri, Aug 26
52 °FClear.2 mph88%30.12 "HgN/A
10:50 PM52 °FClear.3 mph88%30.12 "HgN/A
9:50 PM54 °FClear.3 mph82%30.12 "HgN/A
8:50 PM57 °FSunny.2 mph77%30.09 "HgN/A
7:50 PM68 °FSunny.3 mph46%30.09 "HgN/A
6:50 PM72 °FSunny.8 mph38%30.07 "HgN/A
5:50 PM73 °FSunny.8 mph41%30.07 "HgN/A
4:50 PM75 °FSunny.6 mph41%30.07 "HgN/A
2:50 PM75 °FSunny.8 mph39%30.07 "HgN/A
1:50 PM73 °FSunny.8 mph38%30.07 "HgN/A
12:50 PM72 °FPassing clouds.7 mph47%30.07 "HgN/A
11:50 AM70 °FPassing clouds.6 mph46%30.07 "HgN/A
10:50 AM68 °FPassing clouds.6 mph46%30.09 "HgN/A
9:50 AM66 °FPassing clouds.8 mph56%30.07 "HgN/A
8:50 AM64 °FPassing clouds.6 mph73%30.07 "HgN/A
7:50 AM63 °FScattered clouds.6 mph88%30.04 "Hg4 mi
6:50 AM63 °FFog.3 mph94%30.01 "Hg4 mi
5:50 AM63 °FFog.6 mph94%30.01 "Hg4 mi
4:50 AM63 °FPassing clouds.2 mph100%29.98 "HgN/A
3:50 AM64 °FPartly cloudy.3 mph94%29.98 "Hg2 mi
2:50 AM63 °FPassing clouds.1 mph100%29.95 "Hg2 mi
Weather by CustomWeather, © 2016

See weather overviewHow to use our weather pages